Wind_Speed
42 42 40 38 39 40 39 39 38 37 38 39 40 38 37 37 36 36 35 36 36 36 36 36 36 37 37 37 38 38 38 39 39 40 40 41 41 41 41 41 42 42 42 43
42 42 40 40 40 41 40 40 38 38 39 40 40 39 37 37 37 36 36 36 37 37 37 37 37 38 38 39 39 39 39 40 40 41 41 42 42 43 43 42 43 43 43 44
42 41 42 41 41 41 40 40 38 39 40 41 42 40 37 37 38 38 37 37 37 37 37 38 38 39 39 39 40 40 40 41 41 42 42 43 43 44 44 44 44 44 45 45
42 42 42 41 40 40 40 40 40 40 41 41 42 42 37 38 38 38 38 38 38 38 38 39 39 40 40 41 41 41 42 42 43 43 43 44 44 44 44 45 45 46 46 46
41 42 41 41 40 40 41 40 41 41 42 43 42 44 40 39 38 38 37 38 39 39 39 40 41 41 41 41 41 42 42 42 43 44 44 44 44 45 45 46 46 46 47 47
42 42 41 41 41 41 41 41 41 42 43 45 43 44 43 40 38 37 38 39 40 40 41 41 41 41 41 41 41 42 42 42 42 43 44 45 45 46 46 47 47 48 48 48
43 42 41 42 42 42 41 41 42 43 45 46 43 45 43 40 38 38 39 39 40 41 42 42 42 42 41 41 42 42 42 42 43 43 44 45 46 46 46 47 48 49 49 49
44 44 43 42 42 42 41 41 42 44 46 46 44 45 42 39 37 38 39 39 40 41 41 41 41 42 42 42 42 42 42 42 43 43 43 44 46 47 47 48 49 49 50 50
43 43 43 43 42 42 43 42 41 44 45 46 46 44 41 38 38 38 39 39 39 40 40 41 41 41 41 41 42 42 41 42 42 43 44 45 46 47 47 48 49 50 50 50
43 43 43 43 45 45 44 42 42 43 45 46 46 44 41 38 37 38 38 38 39 40 40 40 40 40 41 42 42 42 42 42 43 44 45 46 46 47 48 49 49 49 49 50
42 43 43 43 44 44 44 44 44 45 45 46 46 44 41 38 37 38 38 38 38 39 39 40 39 40 41 41 41 41 42 42 43 44 45 46 47 48 48 49 50 50 49 50
43 44 43 43 42 43 44 43 43 44 45 45 45 43 40 38 37 37 37 37 38 38 39 40 40 40 41 41 42 42 42 43 44 45 46 47 47 48 48 49 49 49 50 51
42 44 44 44 44 44 44 43 43 45 46 46 45 43 39 38 37 37 37 37 37 38 38 39 40 41 41 41 42 42 43 44 45 46 46 47 47 48 48 49 50 50 50 51
41 43 43 42 43 43 44 44 44 45 46 46 45 42 38 37 37 37 37 38 38 37 38 39 40 41 41 41 41 42 43 44 45 45 46 46 47 47 48 49 50 50 50 51
41 41 42 42 41 42 43 43 44 44 45 45 43 42 39 38 38 38 38 39 39 38 39 40 40 40 40 41 41 42 43 44 45 45 45 46 46 47 48 49 49 50 51 51
40 40 40 42 41 41 42 41 41 42 42 43 43 42 39 39 39 39 39 39 39 39 39 39 39 38 39 40 40 41 42 43 43 44 45 45 46 47 48 48 49 50 50 51
39 39 39 40 40 41 42 39 39 40 40 41 41 40 39 40 39 39 38 39 39 39 39 39 39 39 40 40 41 41 41 42 43 44 45 45 46 47 47 48 48 49 49 49
38 38 39 40 40 41 38 38 38 39 38 39 39 39 40 40 40 40 40 40 39 39 39 40 40 39 40 40 41 42 43 43 43 44 45 46 47 47 47 47 47 48 48 49
38 38 38 39 40 40 38 37 37 39 39 38 38 39 40 41 41 41 40 40 40 40 39 40 40 40 41 41 42 42 43 43 43 44 45 46 46 45 45 45 46 47 47 47
38 38 38 39 40 40 37 37 38 39 40 38 37 38 38 39 40 39 39 40 40 40 40 40 40 40 40 41 41 41 41 42 43 43 44 44 44 44 44 45 45 45 45 45
35 37 38 38 39 39 36 37 37 38 38 38 38 38 38 38 38 38 38 39 39 40 40 40 39 40 40 40 41 41 41 42 42 42 43 43 43 43 43 43 43 43 43 45
34 35 35 37 39 37 36 36 37 36 37 37 38 38 38 37 36 36 37 38 39 39 39 39 39 39 39 40 40 40 40 41 42 42 42 42 42 42 42 42 42 42 43 44
34 34 33 35 37 37 37 36 36 36 36 37 37 37 38 37 37 37 37 37 37 38 38 38 39 38 39 39 39 39 40 40 41 41 41 41 41 41 41 41 41 42 42 43
33 33 33 33 34 34 35 35 36 36 36 36 36 36 36 36 36 37 37 37 37 37 37 37 37 38 38 38 38 39 39 39 39 40 40 40 40 40 40 41 41 41 41 42
32 33 34 34 33 34 34 35 35 36 36 36 36 36 35 35 35 36 36 35 36 36 36 36 37 37 38 38 38 38 38 38 38 38 39 39 39 39 39 40 40 40 41 41
29 31 32 32 32 32 32 33 33 34 34 35 35 35 35 35 35 35 35 35 35 35 35 36 37 37 37 37 37 37 37 37 37 37 37 37 38 39 39 40 40 40 40 41
Wind_Direction
244 245 246 248 248 250 250 250 249 248 248 248 248 248 247 249 250 250 252 253 254 256 258 260 262 263 264 264 265 267 268 268 268 268 269 270 271 272 273 274 275 275 275 276
244 245 246 246 247 249 250 249 249 248 250 250 248 247 248 250 250 252 253 254 255 256 258 260 262 264 264 265 266 268 269 269 269 270 270 271 271 271 273 274 275 275 276 276
245 244 244 246 248 248 249 249 250 250 250 252 251 249 248 249 251 252 254 255 256 258 260 262 263 264 265 266 267 268 269 269 270 270 271 271 272 272 273 274 275 276 277 277
245 244 244 246 247 248 249 249 250 251 252 252 252 253 249 252 253 253 254 255 257 259 260 262 264 265 266 266 267 268 269 270 270 271 271 272 272 272 273 274 275 276 277 278
245 243 245 246 246 247 248 248 250 252 253 252 252 255 252 253 254 255 256 257 258 260 262 263 265 266 266 266 267 269 270 270 271 271 271 271 271 272 273 274 276 277 278 278
244 244 245 246 245 246 247 248 251 252 252 252 252 257 256 255 256 257 258 260 261 262 263 264 265 266 266 266 268 269 269 270 271 271 271 271 271 272 273 275 276 278 279 280
243 244 244 244 245 245 247 247 250 251 251 253 253 256 259 258 258 260 261 262 263 264 265 267 267 267 267 266 268 269 268 269 270 271 272 272 272 273 274 275 277 278 280 281
242 242 243 244 245 246 247 247 249 252 254 255 255 257 260 260 260 261 262 263 264 266 267 268 268 268 267 266 267 268 268 269 270 271 273 273 273 273 275 276 278 279 280 281
243 243 243 244 245 245 245 245 248 252 255 256 257 259 260 262 261 262 263 264 265 266 267 268 268 268 268 267 267 269 269 269 271 272 273 273 274 274 275 277 279 280 280 281
242 244 243 244 244 245 245 245 246 249 254 257 258 260 262 261 262 263 264 265 266 267 267 268 268 268 268 268 268 270 270 271 271 272 273 274 275 275 276 277 279 280 281 281
241 243 244 244 245 246 245 245 246 249 252 256 259 260 262 263 263 263 264 265 266 266 267 268 268 269 269 269 270 271 272 272 272 273 274 275 276 276 277 278 280 280 281 282
239 241 244 244 245 246 246 246 247 249 252 255 259 261 262 263 264 263 264 265 266 267 267 268 268 269 269 270 271 271 272 273 273 273 276 277 277 277 278 279 280 281 282 282
239 240 243 244 244 244 244 244 246 249 253 255 257 260 262 262 262 261 262 264 266 267 268 269 269 270 270 271 272 272 273 273 274 275 277 277 278 278 278 280 281 282 283 283
238 239 242 245 247 246 245 245 247 249 252 255 256 258 260 261 261 261 262 263 265 267 268 269 270 271 271 272 273 273 274 275 275 276 276 278 278 279 280 281 283 284 284 285
238 240 241 243 245 245 246 246 248 250 252 255 257 257 258 258 259 260 262 263 265 267 269 270 270 271 272 272 273 274 275 275 275 276 277 278 279 280 282 283 284 284 285 286
239 241 241 243 244 246 247 248 249 251 253 255 257 257 255 257 258 261 263 264 266 268 269 269 270 271 272 272 273 274 275 275 276 277 278 279 280 281 283 284 285 286 287 287
240 240 241 243 244 247 247 248 250 251 253 256 257 255 253 255 258 260 262 263 266 267 269 270 271 272 273 273 273 274 274 275 276 277 278 279 281 282 283 284 286 287 288 288
240 240 242 243 243 246 248 249 251 253 254 256 256 254 254 256 258 260 262 263 265 267 269 270 271 272 273 274 274 273 274 275 276 277 278 280 282 283 284 285 286 287 288 289
240 241 243 244 246 249 249 251 252 253 254 255 256 256 256 257 259 261 262 263 265 267 268 269 271 271 272 272 273 274 274 275 276 278 279 281 282 283 284 285 286 287 288 289
241 243 245 247 249 251 252 253 253 254 255 254 256 257 258 259 259 259 260 262 264 266 267 268 270 271 272 273 274 274 275 276 277 279 280 282 283 284 285 286 287 288 289 291
244 246 248 250 252 253 254 255 254 255 256 255 255 257 259 261 260 259 260 262 263 265 266 268 270 271 272 273 274 274 275 276 278 279 281 282 283 285 286 287 288 289 290 292
245 248 249 250 252 253 254 255 256 257 257 258 258 259 260 261 261 260 260 262 263 264 266 268 270 270 272 273 274 275 276 277 279 280 281 282 283 285 286 287 289 290 292 293
246 247 249 251 251 252 254 255 256 257 258 259 259 260 261 262 262 263 263 262 263 264 265 267 269 270 272 274 275 276 277 278 279 280 281 283 284 285 287 288 290 291 293 294
248 248 250 251 249 250 252 253 255 257 259 260 260 260 260 260 262 263 265 264 264 265 266 268 270 272 273 275 275 277 278 279 279 281 282 283 285 286 288 289 291 292 294 295
252 252 252 251 250 250 250 252 256 257 258 258 258 258 259 260 262 263 264 265 265 266 268 270 272 274 274 275 276 276 277 278 279 281 282 284 285 287 288 290 291 293 294 295
251 252 252 252 250 250 250 252 254 256 256 256 257 258 259 260 262 263 264 266 266 267 269 270 272 273 274 275 276 277 277 278 280 281 283 285 287 288 289 291 292 293 295 296
Height
5688 5693 5696 5700 5701 5704 5706 5709 5712 5715 5716 5718 5720 5725 5729 5731 5734 5737 5739 5741 5743 5745 5746 5747 5748 5749 5750 5751 5752 5752 5753 5753 5753 5753 5753 5754 5754 5753 5753 5752 5751 5750 5749 5748
5680 5684 5688 5689 5692 5694 5697 5700 5704 5707 5708 5709 5712 5716 5720 5722 5725 5728 5731 5733 5735 5736 5738 5739 5740 5740 5741 5742 5743 5743 5743 5743 5743 5743 5743 5744 5743 5743 5743 5742 5741 5740 5739 5737
5671 5677 5678 5680 5683 5686 5689 5692 5695 5697 5699 5700 5703 5708 5712 5715 5717 5719 5722 5724 5726 5728 5729 5730 5731 5731 5732 5733 5733 5733 5733 5733 5733 5733 5733 5733 5732 5732 5732 5731 5731 5729 5728 5726
5661 5666 5669 5671 5675 5677 5680 5684 5686 5688 5689 5692 5695 5697 5705 5707 5708 5711 5713 5715 5717 5719 5720 5721 5722 5722 5723 5723 5723 5723 5723 5723 5722 5722 5722 5722 5722 5722 5722 5721 5720 5719 5717 5715
5653 5657 5659 5663 5667 5669 5672 5675 5677 5679 5680 5683 5686 5687 5695 5698 5700 5702 5705 5706 5708 5709 5710 5711 5712 5712 5712 5712 5712 5712 5712 5712 5711 5711 5711 5711 5711 5710 5710 5709 5709 5708 5706 5704
5644 5647 5650 5654 5658 5660 5663 5666 5668 5669 5670 5673 5679 5678 5683 5689 5692 5694 5696 5697 5698 5699 5700 5701 5701 5701 5701 5701 5701 5701 5702 5701 5701 5701 5700 5700 5700 5699 5699 5698 5697 5696 5695 5692
5634 5638 5641 5645 5648 5651 5654 5657 5658 5659 5660 5664 5669 5669 5674 5680 5683 5685 5687 5687 5688 5689 5690 5690 5690 5691 5691 5691 5691 5690 5690 5691 5691 5690 5690 5689 5689 5688 5688 5687 5686 5685 5683 5681
5624 5628 5633 5636 5640 5643 5645 5648 5651 5652 5653 5656 5659 5660 5667 5671 5673 5674 5676 5677 5678 5678 5679 5679 5680 5680 5680 5680 5679 5679 5679 5680 5680 5680 5679 5678 5678 5677 5676 5675 5674 5672 5671 5668
5614 5619 5623 5627 5630 5633 5635 5638 5642 5643 5643 5645 5648 5653 5658 5661 5663 5664 5666 5667 5667 5668 5669 5669 5669 5669 5669 5669 5669 5669 5669 5669 5669 5668 5668 5667 5667 5666 5665 5664 5662 5660 5658 5656
5604 5608 5612 5616 5619 5622 5626 5629 5631 5632 5633 5635 5639 5644 5649 5652 5653 5654 5656 5657 5657 5657 5658 5658 5659 5659 5659 5659 5658 5658 5658 5658 5658 5657 5657 5656 5655 5654 5653 5652 5650 5648 5646 5643
5593 5598 5602 5605 5609 5613 5617 5619 5621 5623 5625 5627 5629 5637 5640 5642 5643 5644 5645 5646 5647 5647 5648 5648 5648 5648 5648 5648 5648 5648 5648 5647 5647 5646 5646 5645 5644 5642 5641 5640 5638 5635 5633 5631
5583 5587 5591 5596 5600 5602 5606 5609 5612 5615 5616 5618 5620 5628 5630 5632 5633 5634 5635 5636 5636 5637 5637 5638 5638 5638 5638 5638 5638 5638 5637 5637 5636 5635 5634 5633 5632 5631 5629 5628 5625 5623 5621 5619
5572 5577 5581 5585 5590 5592 5595 5599 5602 5604 5606 5608 5611 5619 5621 5622 5623 5624 5625 5625 5626 5627 5627 5628 5628 5628 5628 5628 5628 5627 5627 5626 5625 5624 5623 5622 5620 5619 5617 5615 5613 5611 5608 5606
5562 5566 5572 5576 5579 5582 5586 5590 5592 5593 5595 5598 5602 5607 5611 5612 5612 5613 5614 5614 5615 5616 5617 5617 5618 5618 5618 5617 5617 5616 5616 5615 5614 5613 5612 5610 5609 5607 5605 5603 5601 5598 5595 5593
5552 5556 5560 5565 5568 5571 5575 5579 5581 5583 5586 5588 5593 5596 5601 5601 5602 5603 5604 5605 5606 5606 5607 5607 5607 5607 5607 5606 5606 5605 5604 5603 5602 5601 5600 5599 5597 5595 5593 5590 5588 5586 5583 5580
5543 5547 5551 5555 5558 5560 5564 5568 5571 5573 5576 5578 5581 5585 5589 5590 5591 5592 5594 5595 5595 5596 5596 5597 5597 5597 5597 5596 5595 5595 5593 5592 5591 5590 5589 5587 5586 5584 5581 5579 5576 5573 5570 5567
5534 5538 5541 5545 5548 5549 5554 5561 5562 5564 5567 5569 5570 5576 5578 5579 5581 5582 5584 5584 5585 5586 5586 5587 5587 5587 5586 5586 5585 5584 5583 5582 5581 5580 5578 5576 5574 5572 5569 5567 5564 5561 5558 5555
5526 5529 5532 5535 5539 5541 5549 5551 5553 5554 5557 5559 5561 5564 5566 5568 5570 5572 5573 5574 5575 5576 5576 5576 5576 5576 5576 5575 5574 5573 5572 5571 5570 5569 5567 5565 5563 5560 5558 5555 5552 5549 5545 5542
5518 5521 5524 5526 5528 5532 5539 5542 5543 5544 5547 5550 5551 5553 5555 5557 5559 5562 5563 5564 5565 5566 5566 5566 5566 5566 5565 5564 5564 5563 5561 5560 5559 5557 5555 5553 5551 5549 5546 5543 5540 5537 5533 5530
5510 5512 5516 5518 5520 5523 5531 5532 5533 5535 5537 5540 5542 5543 5545 5547 5549 5553 5553 5554 5554 5555 5555 5556 5556 5555 5554 5553 5553 5552 5550 5549 5548 5546 5544 5542 5540 5537 5535 5532 5528 5525 5522 5518
5502 5504 5507 5509 5511 5514 5521 5522 5524 5527 5529 5530 5532 5534 5536 5537 5540 5542 5542 5543 5544 5544 5545 5545 5545 5545 5544 5543 5542 5541 5539 5538 5537 5535 5533 5531 5528 5526 5523 5520 5517 5514 5510 5507
5494 5496 5499 5501 5503 5509 5510 5512 5515 5516 5518 5520 5522 5524 5526 5528 5529 5531 5532 5533 5533 5534 5534 5534 5534 5534 5533 5532 5531 5530 5529 5528 5526 5524 5522 5520 5517 5514 5512 5509 5506 5503 5499 5496
5485 5488 5490 5493 5496 5498 5500 5502 5504 5506 5509 5511 5513 5515 5517 5518 5519 5521 5522 5522 5523 5523 5524 5524 5524 5524 5523 5522 5521 5520 5518 5517 5515 5513 5511 5508 5506 5503 5501 5498 5495 5492 5488 5484
5476 5479 5481 5483 5486 5488 5490 5492 5495 5497 5499 5501 5503 5505 5507 5508 5510 5511 5512 5512 5513 5513 5514 5514 5514 5513 5513 5511 5510 5509 5507 5506 5504 5502 5500 5498 5495 5493 5490 5487 5484 5481 5477 5473
5468 5470 5471 5474 5477 5479 5481 5483 5485 5488 5490 5491 5493 5495 5497 5498 5500 5501 5502 5502 5503 5503 5503 5504 5503 5503 5502 5501 5500 5498 5497 5495 5493 5491 5489 5487 5485 5482 5480 5477 5473 5470 5467 5462
5460 5462 5463 5466 5468 5470 5473 5475 5477 5479 5480 5482 5484 5486 5487 5488 5490 5491 5491 5492 5493 5493 5493 5493 5493 5492 5491 5490 5489 5488 5486 5485 5483 5481 5479 5477 5475 5472 5469 5466 5463 5459 5456 5452